Regional Weather Roundup
Issued by NWS Kansas City/Pleasant Hill, MO

Home | Current Version | Previous Version | Graphics & Text | Print | Product List | Glossary Off
Versions: 1 2 3 4 5 6 7 8 9 10 11 12 13 14 15 16 17 18 19 20 21 22 23 24 25 26 27 28 29 30 31 32 33 34 35 36 37 38 39 40 41 42 43 44 45 46 47 48 49 50

000
ASUS43 KEAX 231511
RWREAX

WEATHER ROUNDUP FOR EASTERN KANSAS AND NORTHWEST MISSOURI
NATIONAL WEATHER SERVICE KANSAS CITY/PLEASANT HILL MO
1000 AM CDT THU OCT 23 2014

KSZ040-057-103>105-MOZ028-029-037-043-231600-
...KANSAS CITY METROPOLITAN AREA...

CITY           SKY/WX    TMP DP  RH WIND       PRES   REMARKS
K.C. INTL      PTSUNNY   61  59  93 S10       30.09R
K.C. DOWNTOWN  PTSUNNY   63  59  87 S8        30.09S
LEES SUMMIT    CLOUDY    58  56  93 S7        30.11R
OLATHE - IXD   MOSUNNY   60  59  96 S10       30.10S
OLATHE - OJC   CLOUDY    60  59  96 S9        30.10S
LAWRENCE       MOSUNNY   63  60  90 S6        30.09S

$$

MOZ001>008-011>017-020>025-030>033-038>040-044>046-053-054-231600-
...NORTHERN AND CENTRAL MISSOURI...

CITY           SKY/WX    TMP DP  RH WIND       PRES   REMARKS
ST. JOSEPH     CLOUDY    61  59  93 S3        30.08R
MOSBY          CLOUDY    57  55  94 SE3       30.10S
WHITEMAN AFB   PTSUNNY   57  50  77 S7        30.13R
CLINTON        CLOUDY    55  52  88 S6        30.13F
SEDALIA        CLOUDY    58  48  69 S13       30.15R
WARSAW         NOT AVBL
MARSHALL       CLOUDY    59  52  77 S5        30.14R
CHILLICOTHE      N/A     60  53  77 S9        30.11S
KIRKSVILLE     CLOUDY    55  49  80 S8        30.13R

$$

MOZ041-047>049-056>058-063>065-088>090-097-231600-
...EASTERN AND SOUTHERN MISSOURI...

CITY           SKY/WX    TMP DP  RH WIND       PRES   REMARKS
ST. LOUIS INTL PTSUNNY   55  43  63 S8        30.22R
SPIRIT OF STL  PTSUNNY   53  47  79 NW5       30.22R
COLUMBIA       CLOUDY    53  45  74 S15       30.16S
JEFFERSON CITY CLOUDY    53  44  71 VRB3      30.18R
ROLLA          CLOUDY    51  42  71 S13       30.18S
LEBANON        CLOUDY    55  45  67 S7        30.19S
OSAGE BEACH    CLOUDY    54  43  66 S6        30.17S
SPRINGFIELD    LGT RAIN  54  45  71 S9        30.18S
BRANSON        CLOUDY    54  46  76 CALM      30.21R
JOPLIN         LGT RAIN  57  54  89 SW9       30.18R
WEST PLAINS    CLOUDY    52  43  71 S5        30.23R

$$

IAZ060-094-KSZ022-034>040-054-083-096-NEZ052-066-093-231600-
...KANSAS...SOUTHEAST NEBRASKA AND IOWA...

CITY           SKY/WX    TMP DP  RH WIND       PRES   REMARKS
TOPEKA         CLOUDY    63  61  93 S9        30.09R
MANHATTAN      CLOUDY    62  61  96 SW8       30.09R
EMPORIA        CLOUDY    62  61  96 S10       30.11R FOG
CHANUTE        CLOUDY    60  58  92 S13       30.14R
WICHITA        CLOUDY    64  60  87 S9        30.10R
OMAHA          CLOUDY    59  56  89 N8        30.07R FOG
LINCOLN        FOG       55  54  96 CALM      30.09R VSB 1/2
FALLS CITY     CLOUDY    63  60  90 SW9       30.06S
LAMONI         PTSUNNY   59  56  89 W10       30.07R
DES MOINES     PTSUNNY   56  53  90 SW8       30.05S

$$




USA.gov is the U.S. government's official web portal to all federal, state and local government web resources and services.